Soldotna, AK

6:46 PM AKDT on April 27, 2017 (GMT -0800)
Soldotna

Weather History for PASX - March, 2014

Change the Weather History Date:

Friday, March 7, 2014

  Actual Average Record
Temperature  
Mean Temperature 18 °F -  
Max Temperature 28 °F 30 °F 46 °F (2005)
Min Temperature 8 °F 10 °F -41 °F (1971)
Degree Days  
Heating Degree Days 47    
Moisture  
Dew Point 8 °F    
Average Humidity 68    
Maximum Humidity 93    
Minimum Humidity 40    
Precipitation  
Precipitation 0.00 in - - ()
Sea Level Pressure  
Sea Level Pressure 29.54 in    
Wind  
Wind Speed 3 mph (NE)    
Max Wind Speed 12 mph    
Max Gust Speed 18 mph    
Visibility 10 miles    
Events      
Averages and records for this station are not official NWS values.
T = Trace of Precipitation, MM = Missing Value Source: NWS Daily Summary

Daily Weather History Graph

Daily Weather History Graph

Search for Another Location

Airport or City:

Trip Planner

Search our weather history database for the weather conditions in past years. The results will help you decide how hot, cold, wet, or windy it might be!

Date:

Astronomy

Mar. 07, 2014 Rise Set
Actual Time 7:44 AM AKST 6:46 PM AKST
Civil Twilight 7:02 AM AKST 7:28 PM AKST
Nautical Twilight 6:13 AM AKST 8:18 PM AKST
Astronomical Twilight 5:22 AM AKST 9:09 PM AKST
Moon 10:06 AM AKST (3/7) 2:37 AM AKST (3/7)
Length of Visible Light 12h 26m
Length of Day
11h 02m
Waxing Crescent, 43% of the Moon is Illuminated
Mar 7
Waxing Crescent
Mar 8
First Quarter
Mar 16
Full
Mar 23
Last Quarter
Mar 30
New

Hourly Weather History & Observations

Time (AKST) Temp. Windchill Dew Point Humidity Pressure Visibility Wind Dir Wind Speed Gust Speed Precip Events Conditions
12:16 AM 12.2 °F - 6.8 °F 79% 29.71 in 10.0 mi Calm Calm - N/A   Clear
12:36 AM 12.2 °F - 6.8 °F 79% 29.71 in 10.0 mi Calm Calm - N/A   Clear
12:56 AM 12.2 °F - 6.8 °F 79% 29.71 in 10.0 mi Calm Calm - N/A   Clear
1:16 AM 10.4 °F - 6.8 °F 85% 29.71 in 10.0 mi Calm Calm - N/A   Clear
1:36 AM 10.4 °F - 5.0 °F 79% 29.71 in 10.0 mi Calm Calm - N/A   Clear
1:56 AM 10.4 °F - 5.0 °F 79% 29.70 in 10.0 mi Calm Calm - N/A   Clear
2:16 AM 12.2 °F 6.1 °F 8.6 °F 85% 29.70 in 10.0 mi ENE 3.5 mph - N/A   Clear
2:36 AM 12.2 °F 4.3 °F 8.6 °F 85% 29.71 in 10.0 mi East 4.6 mph - N/A   Clear
2:56 AM 12.2 °F 4.3 °F 8.6 °F 85% 29.71 in 10.0 mi ENE 4.6 mph - N/A   Clear
3:16 AM 10.4 °F 4.0 °F 6.8 °F 85% 29.70 in 10.0 mi ENE 3.5 mph - N/A   Clear
3:36 AM 8.6 °F 2.0 °F 3.2 °F 79% 29.69 in 10.0 mi East 3.5 mph - N/A   Clear
3:56 AM 10.4 °F 2.2 °F 6.8 °F 85% 29.69 in 10.0 mi East 4.6 mph - N/A   Clear
4:16 AM 8.6 °F - 5.0 °F 85% 29.69 in 10.0 mi Calm Calm - N/A   Clear
4:36 AM 8.6 °F 0.1 °F 5.0 °F 85% 29.68 in 10.0 mi East 4.6 mph - N/A   Clear
4:56 AM 10.4 °F 4.0 °F 5.0 °F 79% 29.68 in 10.0 mi East 3.5 mph - N/A   Mostly Cloudy
5:16 AM 10.4 °F 4.0 °F 8.6 °F 92% 29.68 in 10.0 mi ENE 3.5 mph - N/A   Overcast
5:36 AM 12.2 °F - 8.6 °F 85% 29.68 in 10.0 mi Calm Calm - N/A   Overcast
5:56 AM 12.2 °F - 8.6 °F 85% 29.68 in 10.0 mi Calm Calm - N/A   Overcast
6:16 AM 12.2 °F - 6.8 °F 79% 29.67 in 10.0 mi Calm Calm - N/A   Overcast
6:36 AM 12.2 °F - 10.4 °F 92% 29.67 in 10.0 mi Calm Calm - N/A   Overcast
6:56 AM 12.2 °F - 8.6 °F 85% 29.67 in 10.0 mi Calm Calm - N/A   Overcast
7:16 AM 12.2 °F - 8.6 °F 85% 29.66 in 10.0 mi Calm Calm - N/A   Overcast
7:36 AM 14.0 °F - 8.6 °F 79% 29.66 in 10.0 mi Calm Calm - N/A   Overcast
7:56 AM 12.2 °F - 8.6 °F 85% 29.66 in 9.0 mi Calm Calm - N/A   Overcast
8:16 AM 12.2 °F - 8.6 °F 85% 29.66 in 8.0 mi Calm Calm - N/A   Mostly Cloudy
8:36 AM 12.2 °F - 6.8 °F 79% 29.65 in 10.0 mi Calm Calm - N/A   Mostly Cloudy
8:56 AM 12.2 °F - 8.6 °F 85% 29.65 in 10.0 mi Calm Calm - N/A   Overcast
9:16 AM 14.0 °F - 10.4 °F 86% 29.64 in 10.0 mi Calm Calm - N/A   Partly Cloudy
9:36 AM 15.8 °F - 12.2 °F 86% 29.64 in 10.0 mi Calm Calm - N/A   Clear
9:56 AM 17.6 °F 12.3 °F 15.8 °F 93% 29.63 in 10.0 mi ENE 3.5 mph - N/A   Clear
10:16 AM 19.4 °F 9.5 °F 14.0 °F 80% 29.63 in 10.0 mi NE 8.1 mph - N/A   Clear
10:36 AM 21.2 °F 11.7 °F 12.2 °F 68% 29.62 in 10.0 mi NE 8.1 mph - N/A   Clear
10:56 AM 21.2 °F 12.6 °F 12.2 °F 68% 29.61 in 10.0 mi NNE 6.9 mph - N/A   Clear
11:16 AM 23.0 °F 12.4 °F 12.2 °F 63% 29.61 in 10.0 mi NE 10.4 mph - N/A   Clear
11:36 AM 24.8 °F 14.0 °F 10.4 °F 54% 29.61 in 10.0 mi NE 11.5 mph - N/A   Clear
11:56 AM 24.8 °F 14.6 °F 10.4 °F 54% 29.60 in 10.0 mi NNE 10.4 mph 18.4 mph N/A   Clear
12:16 PM 24.8 °F 15.3 °F 12.2 °F 59% 29.59 in 10.0 mi NE 9.2 mph - N/A   Clear
12:36 PM 26.6 °F 17.5 °F 12.2 °F 55% 29.58 in 10.0 mi NE 9.2 mph - N/A   Clear
12:56 PM 26.6 °F 18.2 °F 10.4 °F 51% 29.57 in 10.0 mi NE 8.1 mph - N/A   Clear
1:16 PM 26.6 °F 18.2 °F 10.4 °F 51% 29.56 in 10.0 mi NE 8.1 mph 17.3 mph N/A   Clear
1:36 PM 26.6 °F 18.2 °F 10.4 °F 51% 29.55 in 10.0 mi NNE 8.1 mph - N/A   Clear
1:56 PM 28.4 °F 19.1 °F 10.4 °F 47% 29.54 in 10.0 mi NNE 10.4 mph - N/A   Clear
2:16 PM 28.4 °F 19.7 °F 10.4 °F 47% 29.52 in 10.0 mi NE 9.2 mph - N/A   Clear
2:36 PM 28.4 °F 19.1 °F 8.6 °F 43% 29.51 in 10.0 mi NNE 10.4 mph - N/A   Clear
2:56 PM 28.4 °F 19.7 °F 6.8 °F 40% 29.50 in 10.0 mi NNE 9.2 mph 17.3 mph N/A   Clear
3:16 PM 28.4 °F 18.5 °F 10.4 °F 47% 29.49 in 10.0 mi NE 11.5 mph 16.1 mph N/A   Clear
3:36 PM 28.4 °F 21.2 °F 8.6 °F 43% 29.48 in 10.0 mi NE 6.9 mph - N/A   Clear
3:56 PM 28.4 °F 19.1 °F 10.4 °F 47% 29.46 in 10.0 mi NNE 10.4 mph 16.1 mph N/A   Clear
4:16 PM 28.4 °F 20.4 °F 10.4 °F 47% 29.45 in 10.0 mi NNE 8.1 mph - N/A   Clear
4:36 PM 28.4 °F 21.2 °F 10.4 °F 47% 29.44 in 10.0 mi NNE 6.9 mph - N/A   Clear
4:56 PM 28.4 °F 22.2 °F 10.4 °F 47% 29.43 in 10.0 mi NE 5.8 mph - N/A   Clear
5:16 PM 28.4 °F 20.4 °F 8.6 °F 43% 29.41 in 10.0 mi NNE 8.1 mph - N/A   Clear
5:36 PM 28.4 °F 20.4 °F 8.6 °F 43% 29.41 in 10.0 mi NE 8.1 mph 16.1 mph N/A   Clear
5:56 PM 28.4 °F 21.2 °F 8.6 °F 43% 29.39 in 10.0 mi NNE 6.9 mph - N/A   Clear
6:16 PM 28.4 °F 24.6 °F 6.8 °F 40% 29.38 in 10.0 mi NNE 3.5 mph - N/A   Clear
6:36 PM 26.6 °F 17.5 °F 8.6 °F 47% 29.38 in 10.0 mi NE 9.2 mph - N/A   Clear
6:56 PM 26.6 °F 20.0 °F 8.6 °F 47% 29.37 in 10.0 mi NE 5.8 mph - N/A   Clear
7:16 PM 24.8 °F 19.1 °F 8.6 °F 50% 29.36 in 10.0 mi ENE 4.6 mph - N/A   Clear
7:36 PM 24.8 °F 19.1 °F 8.6 °F 50% 29.36 in 10.0 mi East 4.6 mph - N/A   Clear
7:56 PM 23.0 °F - 8.6 °F 54% 29.35 in 10.0 mi Calm Calm - N/A   Clear
8:16 PM 21.2 °F - 8.6 °F 58% 29.34 in 10.0 mi Calm Calm - N/A   Clear
8:36 PM 19.4 °F - 5.0 °F 54% 29.33 in 10.0 mi Calm Calm - N/A   Clear
8:56 PM 17.6 °F - 6.8 °F 63% 29.33 in 10.0 mi Calm Calm - N/A   Clear
9:16 PM 15.8 °F - 6.8 °F 68% 29.32 in 10.0 mi Calm Calm - N/A   Clear
9:36 PM 15.8 °F - 6.8 °F 68% 29.31 in 10.0 mi Calm Calm - N/A   Clear
9:56 PM 15.8 °F - 8.6 °F 73% 29.31 in 10.0 mi Calm Calm - N/A   Clear
10:16 PM 14.0 °F - 6.8 °F 73% 29.30 in 10.0 mi Calm Calm - N/A   Clear
10:36 PM 12.2 °F - 3.2 °F 67% 29.29 in 10.0 mi Calm Calm - N/A   Clear
10:56 PM 10.4 °F - 3.2 °F 73% 29.29 in 10.0 mi Calm Calm - N/A   Clear
11:16 PM 10.4 °F - 3.2 °F 73% 29.28 in 10.0 mi Calm Calm - N/A   Clear
11:36 PM 10.4 °F - 5.0 °F 79% 29.28 in 10.0 mi Calm Calm - N/A   Clear
11:56 PM 8.6 °F - 1.4 °F 73% 29.28 in 10.0 mi Calm Calm - N/A   Clear